Theta_e
322 324 324 322 321 322 324 324 325 326 327 342 349 352 349 349 348 347 343 342 342 341 344 346 346 346 346 347 347 347 348 348 348 347 347 347 347 346 344 342 343 340 343 344
320 323 323 322 323 323 323 324 325 325 328 339 349 353 350 348 350 347 345 344 342 341 342 343 345 345 346 346 347 347 348 347 346 347 347 347 346 345 344 342 344 342 346 344
322 323 323 323 323 324 322 323 324 325 329 347 345 347 342 346 349 348 345 344 341 341 342 343 344 345 346 346 346 347 347 346 344 345 347 345 345 344 343 344 343 345 344 342
322 322 324 324 323 322 324 323 324 324 326 326 345 340 327 334 345 349 348 344 342 341 339 342 344 344 345 346 346 347 347 345 344 344 346 345 344 344 345 344 345 343 343 342
324 325 324 324 325 322 324 324 323 325 324 325 326 327 324 342 337 343 348 346 343 341 339 341 343 344 345 346 346 347 347 345 344 344 344 344 344 345 344 344 344 342 343 344
322 322 322 322 323 323 324 322 320 319 320 322 322 325 326 328 333 339 347 346 344 341 339 339 341 344 346 346 346 346 347 345 343 343 344 344 344 344 344 343 342 343 343 341
322 323 323 323 325 323 319 319 324 325 322 323 319 327 325 325 326 333 342 346 342 342 339 340 341 344 346 346 346 345 346 344 343 343 344 344 343 344 344 344 344 344 344 345
323 325 323 323 323 325 322 320 323 327 323 322 320 324 323 325 332 335 337 343 342 340 340 340 341 343 345 346 346 346 345 345 343 342 342 342 343 344 344 342 342 343 343 344
322 324 323 323 323 325 324 320 319 317 315 319 318 319 322 328 332 339 339 342 343 341 341 340 341 342 345 346 347 346 345 345 343 341 342 342 340 343 343 341 344 343 342 345
322 323 322 323 323 322 322 317 320 314 322 323 319 323 324 323 328 331 338 339 342 342 342 340 341 342 344 346 346 346 345 345 341 340 340 340 340 342 341 341 346 345 344 344
325 320 323 324 324 324 317 318 312 313 314 318 319 320 318 327 327 325 329 336 339 339 341 340 340 342 343 346 346 346 345 344 340 339 338 338 339 340 344 345 346 345 345 345
329 321 325 325 322 321 320 319 313 317 318 314 315 319 319 325 329 329 333 335 336 336 338 339 340 341 343 346 346 345 345 344 342 340 340 340 342 344 345 346 347 345 345 345
330 326 331 329 324 327 330 330 315 312 312 316 319 322 319 321 325 328 335 337 337 335 336 337 340 343 344 346 346 346 345 344 344 343 343 343 344 345 345 345 346 344 345 343
328 326 331 332 327 329 334 335 331 323 326 322 318 324 323 324 324 326 327 331 337 336 336 338 340 342 344 345 345 346 345 345 345 344 345 345 346 346 346 346 345 344 346 346
318 321 329 328 328 328 332 335 335 332 328 329 330 322 324 323 323 329 328 332 336 336 336 339 340 341 344 344 345 346 347 346 346 346 346 346 345 345 345 345 345 345 346 345
317 318 325 322 320 325 330 330 332 333 333 324 324 325 322 340 335 330 331 334 335 335 333 341 341 341 343 345 345 346 347 347 348 347 347 347 346 345 345 347 348 347 346 346
316 317 320 321 320 321 321 319 321 325 330 330 332 329 342 343 341 338 335 335 336 334 332 338 341 341 343 345 346 345 347 348 348 348 348 348 347 347 346 347 348 347 347 347
315 314 315 318 319 323 316 318 322 330 341 344 342 343 341 340 336 335 335 335 335 334 333 333 337 340 342 346 346 347 348 348 348 346 346 349 348 348 347 346 348 347 345 345
311 313 318 320 320 318 321 327 335 334 329 342 340 338 336 333 333 335 333 332 333 334 336 336 336 339 341 345 347 348 348 348 348 347 344 348 349 349 348 346 345 344 341 347
312 310 317 316 322 324 320 329 328 332 335 337 337 335 334 333 340 335 331 331 335 337 339 340 341 341 342 346 347 348 349 349 346 347 345 343 348 349 350 349 347 345 335 338
319 320 325 321 321 320 327 325 328 336 328 333 335 333 332 332 332 330 328 333 336 338 340 344 343 342 342 346 348 349 349 350 349 349 348 347 348 349 350 349 348 345 343 346
317 320 322 323 325 328 324 323 331 328 327 330 331 331 331 330 329 330 328 333 334 334 338 346 345 345 343 345 348 348 348 349 349 349 350 350 350 350 350 350 350 349 349 350
321 321 321 325 324 320 322 324 322 322 324 325 329 329 330 331 330 329 328 329 332 333 334 343 347 347 346 346 347 348 348 349 349 350 350 351 351 351 350 351 350 351 350 347
315 317 320 320 318 319 320 319 320 320 323 325 327 329 329 330 329 329 328 327 326 331 334 340 347 348 348 348 347 347 348 348 349 350 350 351 351 352 352 353 352 350 345 343
314 316 317 317 317 317 317 317 320 321 320 322 324 329 329 329 329 328 328 328 326 330 333 338 341 346 349 349 349 348 348 350 351 351 351 353 353 354 353 352 349 345 343 342
313 315 319 320 315 316 317 316 317 320 319 320 322 327 328 328 328 328 329 327 326 330 332 336 338 346 350 351 350 350 350 351 351 351 352 353 353 352 351 347 344 344 343 342
Wind_Speed
3 4 5 8 6 5 3 4 6 18 8 5 11 15 18 7 8 8 10 11 11 13 11 18 22 26 24 22 23 22 21 18 16 17 18 18 19 17 17 18 15 16 13 12
6 6 10 3 3 4 4 5 9 12 6 8 3 13 11 8 9 12 13 11 12 7 8 11 21 23 27 27 25 24 22 19 18 19 21 19 20 16 17 18 16 15 13 12
6 8 4 3 2 4 4 5 5 7 6 1 3 7 7 2 3 8 10 8 8 13 13 11 16 23 24 28 29 27 23 19 18 18 20 16 16 13 14 16 16 15 13 13
6 5 7 3 5 6 6 6 5 7 1 4 4 6 5 4 7 7 8 9 11 10 9 11 15 19 25 28 29 27 24 20 19 20 22 20 21 15 15 17 15 12 13 13
9 3 5 3 6 6 9 4 5 4 3 2 2 2 8 4 8 8 12 12 12 13 14 13 15 23 24 25 28 28 24 22 21 23 23 22 20 17 17 16 15 14 14 13
7 1 5 7 5 6 4 4 3 3 3 3 3 3 9 3 6 5 4 12 13 13 13 14 18 20 24 26 25 24 26 25 23 25 24 24 23 17 14 16 16 15 15 14
6 7 6 5 5 1 4 5 4 5 5 6 3 1 9 10 9 7 8 10 14 13 12 12 12 17 23 26 30 26 30 28 26 29 26 24 25 20 17 17 17 15 15 14
1 9 2 1 7 5 5 7 5 4 3 6 2 5 6 6 9 6 7 6 10 13 13 15 16 22 24 27 32 27 31 30 30 32 31 25 25 21 19 17 18 18 19 15
3 7 4 6 5 6 2 4 4 5 3 1 3 8 10 3 8 2 3 6 12 14 15 16 16 26 28 30 34 39 34 33 34 34 35 30 26 24 20 19 15 17 19 17
3 5 5 9 3 1 5 6 2 3 2 3 5 5 6 10 11 2 6 8 9 9 11 12 13 22 27 33 34 30 33 38 37 35 34 31 29 26 21 18 15 14 16 16
0 3 7 2 3 6 2 1 6 4 4 5 2 6 7 7 10 11 9 7 9 7 11 11 13 21 25 27 30 32 36 35 34 35 34 33 31 28 24 21 17 14 14 17
3 3 3 8 4 3 2 3 5 5 4 1 3 6 4 7 10 8 10 3 7 6 8 9 9 19 25 30 29 33 36 36 37 35 35 34 31 29 27 24 20 16 16 15
3 1 4 9 5 5 6 3 4 5 2 5 5 6 4 8 10 8 8 8 5 6 7 7 8 13 24 28 30 30 33 35 37 33 33 33 33 30 30 28 24 20 16 19
4 2 6 6 5 1 4 3 2 2 2 5 5 7 8 10 10 13 14 9 5 8 8 7 9 12 22 26 25 27 28 30 28 28 27 32 34 32 31 29 25 23 21 19
4 3 4 6 6 4 7 8 7 6 6 5 6 8 9 9 9 13 9 8 9 7 8 8 10 10 16 22 24 26 25 29 36 34 32 33 32 32 30 28 26 25 22 21
2 3 1 7 9 11 12 12 9 11 12 7 7 9 5 7 8 7 9 8 10 7 7 9 7 8 12 23 27 27 26 31 32 27 29 30 28 30 30 29 25 23 23 21
5 5 2 5 4 5 7 10 15 10 7 9 8 8 4 7 10 8 8 9 14 10 8 10 11 11 17 24 27 25 31 30 31 23 24 29 28 29 29 26 23 22 23 20
3 4 3 3 4 4 7 6 8 6 2 2 4 4 5 8 14 17 7 7 13 12 9 8 11 15 20 21 22 20 28 28 26 22 16 26 28 28 27 24 20 17 9 13
3 4 1 2 3 6 8 5 5 6 5 1 4 7 7 11 10 1 7 13 10 12 10 7 16 19 23 26 28 29 27 31 29 27 30 25 29 28 28 20 17 14 11 12
5 5 3 2 3 4 4 4 6 3 4 4 4 5 8 9 5 5 20 17 14 9 15 8 14 17 25 24 29 28 27 30 29 25 33 26 31 31 26 25 23 22 12 15
4 3 3 5 5 6 3 12 6 3 3 5 4 6 5 3 3 12 15 13 10 8 12 8 14 16 20 27 31 26 26 29 38 28 33 37 34 34 26 18 24 19 20 18
3 2 3 0 3 7 4 8 4 4 7 6 7 5 6 7 9 8 10 11 10 12 15 5 9 12 19 27 29 23 27 31 29 28 29 31 30 22 19 18 16 16 17 14
3 5 2 6 5 5 1 8 7 6 13 11 9 8 6 10 8 9 11 10 10 10 14 10 6 11 17 22 26 22 23 24 24 23 23 20 19 20 19 20 17 17 15 14
4 3 4 2 4 8 11 10 6 6 6 12 13 13 8 13 11 9 10 10 9 10 8 14 2 9 12 20 23 24 21 21 23 24 21 21 23 20 19 18 18 17 17 15
6 3 4 6 9 12 13 9 9 7 6 10 14 13 13 12 12 7 8 7 10 12 8 8 8 4 4 13 15 15 18 22 24 22 22 23 23 22 21 18 17 17 14 11
5 6 3 7 9 9 13 14 11 11 12 12 11 11 10 9 10 7 8 5 10 14 11 3 3 3 7 10 10 12 19 24 22 21 22 23 23 22 23 20 16 14 11 9
Wind_Direction
9 53 244 251 194 201 238 242 261 290 255 240 223 250 265 186 222 213 199 197 204 217 217 201 195 204 202 200 196 200 199 204 203 194 194 193 195 195 198 204 204 205 213 208
16 267 249 189 191 211 222 280 284 282 289 182 149 250 269 203 215 211 206 195 204 175 180 174 172 187 196 197 197 198 204 203 204 200 195 189 188 195 201 201 203 206 216 215
177 236 110 161 268 298 247 213 274 244 337 275 3 285 260 280 229 211 221 186 184 180 181 178 175 177 182 191 195 201 203 206 203 197 190 187 185 193 195 203 207 210 214 209
243 255 233 236 249 163 298 182 251 276 155 247 139 287 280 296 281 227 213 186 182 177 185 185 176 179 179 190 195 200 203 206 201 194 191 191 185 185 196 198 202 205 207 214
240 221 197 195 226 159 238 328 299 308 194 359 307 59 272 342 293 256 219 198 190 186 181 187 183 188 183 184 198 200 203 206 199 194 197 190 192 198 199 206 219 219 217 215
245 283 171 218 269 179 262 308 37 51 83 6 267 140 287 253 239 287 232 202 188 190 187 194 186 171 175 182 188 204 204 206 200 194 198 194 196 199 199 203 210 222 228 225
330 261 243 180 299 61 97 58 334 346 2 227 276 75 240 275 271 248 228 197 193 188 180 184 167 169 173 169 178 194 201 206 203 197 198 199 201 209 206 206 213 224 222 222
192 315 183 88 183 190 190 155 164 237 235 264 292 254 265 228 289 312 223 180 182 191 186 188 180 176 177 173 182 188 195 207 206 202 200 200 202 208 215 219 219 228 229 230
191 264 266 196 174 139 238 208 188 112 5 40 268 297 302 294 312 92 262 163 191 196 195 196 182 179 175 177 188 197 197 203 208 205 204 205 208 211 215 222 223 227 232 234
249 280 240 279 169 149 177 163 59 15 197 230 294 283 239 308 314 326 235 220 223 192 197 192 186 183 182 182 191 194 200 203 205 205 204 203 206 212 213 213 223 225 228 230
281 147 286 19 206 216 70 293 51 122 139 171 205 266 217 260 286 297 275 205 233 197 190 189 190 182 179 181 182 191 197 198 202 206 207 206 208 214 214 218 222 225 219 218
352 135 282 242 282 296 173 127 133 129 228 221 162 269 244 278 288 290 288 201 210 181 190 192 179 170 173 179 182 187 194 199 204 206 209 209 208 211 215 217 223 226 224 219
326 347 354 336 352 12 51 347 118 113 90 201 146 258 290 321 331 329 301 302 165 177 176 184 166 175 180 181 185 187 191 197 203 203 208 211 214 215 219 220 225 230 230 221
111 140 188 207 229 205 292 321 326 129 157 173 228 285 312 309 311 316 317 295 213 178 180 195 195 186 185 181 182 184 187 191 195 201 205 212 217 220 222 224 228 229 228 230
99 249 227 246 252 268 249 259 237 221 233 198 244 216 255 274 292 295 292 306 282 172 161 182 192 191 177 177 179 184 182 183 194 200 209 216 220 222 225 229 229 231 233 237
12 257 208 274 267 249 253 254 231 235 241 245 252 265 222 285 292 290 302 296 279 251 175 174 179 170 183 179 183 181 180 185 186 188 206 217 221 223 224 226 228 226 231 235
185 179 118 261 315 325 296 239 234 232 198 195 203 225 357 308 310 296 323 315 299 282 193 180 179 189 186 190 179 177 173 180 196 191 204 221 222 224 223 224 233 231 231 233
191 136 153 263 23 234 245 293 278 253 214 331 312 312 309 284 290 288 295 338 327 297 244 192 180 187 191 192 185 164 166 182 167 188 225 228 222 223 220 212 221 231 251 286
157 135 204 212 208 288 305 18 16 35 291 85 307 314 317 311 294 188 35 351 315 310 276 235 199 189 183 180 176 177 167 179 189 185 203 219 228 223 217 215 202 211 229 265
73 74 120 76 224 257 261 323 317 269 281 1 335 314 329 337 2 301 339 334 324 326 325 261 194 178 174 168 170 170 173 181 202 185 190 229 232 223 212 205 202 194 218 236
352 356 212 218 231 279 294 309 290 204 281 324 308 294 307 342 230 299 314 324 318 319 319 290 195 173 178 170 165 170 176 190 204 185 195 206 216 217 211 206 195 208 208 219
194 230 239 81 239 265 357 356 33 280 306 280 296 286 290 289 298 298 317 332 320 337 334 338 177 169 182 180 174 175 186 203 205 207 203 208 207 199 189 183 187 189 182 188
268 193 210 197 239 258 241 240 267 272 288 296 282 280 277 297 303 308 314 327 323 321 325 338 193 178 184 187 188 184 202 199 195 197 198 202 194 188 182 175 175 169 178 182
270 195 221 330 275 274 299 289 244 276 269 298 293 281 279 283 295 299 304 318 323 308 331 341 91 172 177 192 198 206 199 192 189 184 181 182 181 177 175 175 177 178 179 184
203 179 228 256 280 279 271 269 283 280 283 295 294 270 269 276 288 281 289 312 312 301 319 359 17 40 150 185 198 202 198 188 179 171 173 172 171 173 172 178 182 188 191 197
189 212 207 265 243 243 272 284 277 273 285 267 263 288 274 255 265 257 271 271 291 308 298 276 328 67 132 143 162 178 187 180 174 171 174 179 177 175 175 175 180 190 199 213